Address 0x933fe0dd67211cd05274cb0259477f713f25e92f 4

 
Txn Hash Method
Block
From
To
Value [Txn Fee]
0x4a45e592952222f94243dc3bcfee4704f7fc7b73c4f91b48b1c3a158a73eea3fWithdraw222238322021-12-07 2:54:481 min ago0x933fe0dd67211cd05274cb0259477f713f25e92fOUT 0xd69b31c3225728cc57ddaf9be532a4ee1620be510 MATIC0.0039889
0x9be25aefe1c4abe7d987552759e8bfca2fa1d2ed0d95f0345ac44d17dcef5ef3Any Swap Out222215372021-12-07 1:27:051 hr 29 mins ago0x933fe0dd67211cd05274cb0259477f713f25e92fOUT 0x4f3aff3a747fcade12598081e80c6605a8be192f0 MATIC0.0043616
0x96e08570f03ac07c3658f189837e2086ef454f3d129d3ac97e7f312ed8a13a28Approve222215182021-12-07 1:26:271 hr 29 mins ago0x933fe0dd67211cd05274cb0259477f713f25e92fOUT USD Coin0 MATIC0.0029223
0x0a8b714a23fb3a43a1c832f63b14166efcf8e2cfc596324cebd28fd9cc187273Any Swap Out Und...221719972021-12-05 17:41:071 day 9 hrs ago0x933fe0dd67211cd05274cb0259477f713f25e92fOUT 0x4f3aff3a747fcade12598081e80c6605a8be192f0 MATIC0.0028184
0x0aa2c534da1cbba3c543762902391760bb1e87282701b23c7fc676c360ea3c31Transfer221714812021-12-05 17:17:481 day 9 hrs ago0x933fe0dd67211cd05274cb0259477f713f25e92fOUT USD Coin0 MATIC0.00194256
0xa0d155dd839cdef5ec5fb44fe99972588f3a86b03b6bb0b78f761ecc0d25d4e5Any Swap Out Und...221712832021-12-05 17:11:001 day 9 hrs ago0x933fe0dd67211cd05274cb0259477f713f25e92fOUT 0x4f3aff3a747fcade12598081e80c6605a8be192f0 MATIC0.00307728
0x602908057b4eee06a2c2eb8054c6c194676c6ea18373e27d8ff16126bed2383bExchange221712422021-12-05 17:09:341 day 9 hrs ago0x933fe0dd67211cd05274cb0259477f713f25e92fOUT 0xad326c253a84e9805559b73a08724e11e49ca6510 MATIC0.00480664
0xc69d9247cfc223b845a77e055ae1d2e2fcb71843a11b35cf9fd74d86ca3875c4Exchange_underly...221712152021-12-05 17:08:401 day 9 hrs ago0x933fe0dd67211cd05274cb0259477f713f25e92fOUT 0x225fb4176f0e20cdb66b4a3df70ca3063281e8550 MATIC0.03543956
0xb482683138424db4ab236b61f009116ee7af565d274d49c1ad5ef545bd112a75Any Swap Out Und...221092682021-12-04 2:13:123 days 43 mins ago0x933fe0dd67211cd05274cb0259477f713f25e92fOUT 0x4f3aff3a747fcade12598081e80c6605a8be192f0 MATIC0.00453828
0x4e6efa0b2a154de7a8240150ee73f478c173ab14a445ec20d57d5ad5c6516ea5Exchange221090422021-12-04 2:04:003 days 52 mins ago0x933fe0dd67211cd05274cb0259477f713f25e92fOUT 0xad326c253a84e9805559b73a08724e11e49ca6510 MATIC0.007089794
0x0d94ae352ac5dc9d1920a16b021a0b4c8aeb28d8f72f2d8bc9fd293da4528e93Exchange221090252021-12-04 2:03:263 days 52 mins ago0x933fe0dd67211cd05274cb0259477f713f25e92fOUT 0xad326c253a84e9805559b73a08724e11e49ca6510 MATIC0.00810924
0xea36683bb3555ab63ca7087246b9f941f011c8ddeed8d5fe68c884a48570185fExchange221090152021-12-04 2:03:063 days 53 mins ago0x933fe0dd67211cd05274cb0259477f713f25e92fOUT 0xad326c253a84e9805559b73a08724e11e49ca6510 MATIC0.0067577
0x712c79d15f998ba54999d863d0ecba38cf96433f5c5ad33a300a2e9646ca98dfAny Swap Out Und...220404602021-12-02 6:44:344 days 20 hrs ago0x933fe0dd67211cd05274cb0259477f713f25e92fOUT 0x4f3aff3a747fcade12598081e80c6605a8be192f0 MATIC0.0026922
0x45e7e75eb0c183223b5a38252fcfb0e6659f492d45c6fe90cf2fe8af6c9fac0dExchange220399682021-12-02 6:27:384 days 20 hrs ago0x933fe0dd67211cd05274cb0259477f713f25e92fOUT 0xad326c253a84e9805559b73a08724e11e49ca6510 MATIC0.0068633
0xfc98274120b6f981f5e83dec598b8bf976fe3846de680620ac3ff6cf0aeb4589Exchange_underly...220399422021-12-02 6:26:464 days 20 hrs ago0x933fe0dd67211cd05274cb0259477f713f25e92fOUT 0x225fb4176f0e20cdb66b4a3df70ca3063281e8550 MATIC0.0407873
0xf1803e7dad38d163912860e84f919b7dc0dd05adfeaadcdededab14bb265d0b30xe6c3189a220399262021-12-02 6:25:524 days 20 hrs ago0x933fe0dd67211cd05274cb0259477f713f25e92fOUT 0xcbba8c0645ffb8aa6ec868f6f5858f2b0eae34da0 MATIC0.02085666
0xa6fba0d3a68c09066553602aa1bb234ea561fa50b8602b98b9cf6630fa2dd001Exchange220399182021-12-02 6:25:204 days 20 hrs ago0x933fe0dd67211cd05274cb0259477f713f25e92fOUT 0xad326c253a84e9805559b73a08724e11e49ca6510 MATIC0.0130585
0xbdc2a5a68e08f1515059764c9fd4ba28ae51cdac56a27d72dbee9639a7737d45Exchange_underly...220398932021-12-02 6:23:404 days 20 hrs ago0x933fe0dd67211cd05274cb0259477f713f25e92fOUT 0x225fb4176f0e20cdb66b4a3df70ca3063281e8550 MATIC0.0823776
0x979a9c6a1ea05fb0742b78048dda8df651789cc82edb492de936f5635434ca22Transfer220373962021-12-02 4:46:304 days 22 hrs ago0x933fe0dd67211cd05274cb0259477f713f25e92fOUT USD Coin0 MATIC0.0015732
0x45665afe56f50f151ec8811be6593a88c3c67f8772188ca1678fccfdba249bc9Exchange_underly...220372932021-12-02 4:42:144 days 22 hrs ago0x933fe0dd67211cd05274cb0259477f713f25e92fOUT 0x225fb4176f0e20cdb66b4a3df70ca3063281e8550 MATIC0.03525205
0x69164e4b578232e113afc2b6efef3404583e71b1b15771083d52c4be7acfbaccExchange220372862021-12-02 4:42:004 days 22 hrs ago0x933fe0dd67211cd05274cb0259477f713f25e92fOUT 0xad326c253a84e9805559b73a08724e11e49ca6510 MATIC0.00655115
0x22ade11fa708d8ba63b2c7f8eebbc554ed38a2e6a2ecea85789efbf9045185440x3bf8c173220372642021-12-02 4:41:164 days 22 hrs ago0x933fe0dd67211cd05274cb0259477f713f25e92fOUT 0xcbba8c0645ffb8aa6ec868f6f5858f2b0eae34da0 MATIC0.01808595
0x86923a8440142972700132d72c9f7dea2b2a7b90ae6305b619850ac89b57d23fExchange_underly...220372322021-12-02 4:40:084 days 22 hrs ago0x933fe0dd67211cd05274cb0259477f713f25e92fOUT 0x225fb4176f0e20cdb66b4a3df70ca3063281e8550 MATIC0.0357895
0x388271541ed312793b346620363014b05e22cbfffb5b03601ccb96baa8ec52c8Exchange220372162021-12-02 4:39:364 days 22 hrs ago0x933fe0dd67211cd05274cb0259477f713f25e92fOUT 0xad326c253a84e9805559b73a08724e11e49ca6510 MATIC0.00655115
0x15e428083422fcebcafd1ddbd6dbd1963d0ea6f3848ca848125baaa592c927ba0x3bf8c173220372032021-12-02 4:39:104 days 22 hrs ago0x933fe0dd67211cd05274cb0259477f713f25e92fOUT 0xcbba8c0645ffb8aa6ec868f6f5858f2b0eae34da0 MATIC0.01733655
[ Download CSV Export 
Latest 2 internal transactions
Parent Txn Hash Block From To Value
0x1c585d9f02176c3f11145ba7ea7bb054ed63e814f517009c81c073bba43e6319216923552021-11-23 2:01:2414 days 54 mins ago 0x1111111254fb6c44bac0bed2854e76f90643097d0x933fe0dd67211cd05274cb0259477f713f25e92f1.922932639371572331 MATIC
0x4cd5ae1a95d327a068f2ad43a36e09ddf3e2cf14190d66f494540d18f52aa56e146746292021-05-19 7:57:35201 days 18 hrs ago QuickSwap: Router0x933fe0dd67211cd05274cb0259477f713f25e92f1.355099470182607215 MATIC
[ Download CSV Export 
Loading

Contract Name:
0 MATIC

Compiler Version
0

Optimization Enabled:
0 MATIC

Other Settings:
-NA-
Block Transaction Gas Used Reward
Age Block Fee Address BC Fee Address Voting Power Jailed Incoming
Block Uncle Number Difficulty Gas Used Reward
Loading
Loading
Make sure to use the "Vote Down" button for any spammy posts, and the "Vote Up" for interesting conversations.